World > North America > United States > Texas

Hourly Olmos Park, TX Regional Weather

Feedback E-mail the Weather

Quick WX

Olmos Park, TX Weather Maps

°F °C°F °C
Olmos Park Weather Map
UTC Time: 6/25/2022, 19:34
Your Time:

Olmos Park, TX Regional Weather

Expires:202206252000;;178356
ASUS44 KSJT 251915
RWRSJT
WEST CENTRAL TEXAS REGIONAL WEATHER ROUNDUP
NATIONAL WEATHER SERVICE SAN ANGELO TX
200 PM CDT SAT JUN 25 2022

NOTE: "FAIR" INDICATES FEW OR NO CLOUDS BELOW 12,000 FEET WITH NO
SIGNIFICANT WEATHER AND/OR OBSTRUCTIONS TO VISIBILITY.


TXZ145-158-159-173-191-192-194-205-207-220-223-252000-
CENTRAL AND SOUTH CENTRAL TEXAS
  
CITY           SKY/WX    TMP DP  RH WIND       PRES   REMARKS
AUSTIN/BERGSTM MOSUNNY   97  61  30 S13       29.97F                  
WACO           SUNNY    100  57  23 S13G21    29.97F                  
HILLSBORO      NOT AVBL                                               
TEMPLE         SUNNY     97  62  31 S9        29.99F                  
KILLEEN-GRAY   MOSUNNY   98  51  20 SE9G18    29.95F                  
FORT HOOD      SUNNY     98  54  23 SW12G22   29.98F                  
GEORGETOWN     SUNNY     96  59  29 S9G22     30.01F                  
LAGO VISTA     FAIR      99  58  26 SE6       30.01F                  
SAN MARCOS     SUNNY     97  63  32 SE12      29.99F                  
NEW BRAUNFELS  SUNNY     98  64  32 S14G22    29.97F                  
RANDOLPH AFB   MOSUNNY   95  57  27 S8G16     29.96F                  
SAN ANTONIO    SUNNY     95  59  30 VRB7      29.98F                  
STINSON        SUNNY     97  63  32 S15       29.95F                  
PLEASANTON     NOT AVBL                                               
LA GRANGE      SUNNY     98  65  33 SW8G16    29.96F                  
GIDDINGS       CLEAR     94  62  34 SE5       29.99F                  
$$


SKY/WX - Weather  TMP - Temperature  DP - Dew Point  RH - Humidity
WIND - Wind Direction/Speed PRES - Barometric Pressure VSB - Visibility
WCI - Wind Chill Index E13G22 Wind - East Wind 13 mph/Gusts of 22 mph

Trending Headlines

Olmos Park Radar Loop



Olmos Park Quick Facts


National Two Day Weather Forecast


E-mail the Olmos Park Weather Forecast

Voice your opinion or tell us about page issues...